Regional Weather Roundup
Issued by NWS Charleston, SC

Current Version | Previous Version | Text Only | Print | Product List | Glossary Off
Versions: 1 2 3 4 5 6 7 8 9 10 11 12 13 14 15 16 17 18 19 20 21 22 23 24 25 26 27 28 29 30 31 32 33 34 35 36 37 38 39 40 41 42 43 44 45 46 47 48 49 50

000
ASUS42 KCHS 272327
RWRCHS

REGIONAL WEATHER ROUNDUP
NATIONAL WEATHER SERVICE CHARLESTON SC
700 PM EDT MON MAR 27 2017

NOTE: "FAIR" INDICATES FEW OR NO CLOUDS BELOW 12,000 FEET WITH NO
SIGNIFICANT WEATHER AND/OR OBSTRUCTIONS TO VISIBILITY.

NOT ALL STATIONS ARE QUALITY CONTROLLED. USE DATA WITH CAUTION...
ESPECIALLY DEWPOINT OBSERVATIONS.

SCZ027-030-031-034>040-042>050-280000-
...SOUTHEAST SOUTH CAROLINA...

CITY           SKY/WX    TMP DP  RH WIND       PRES   REMARKS
N CHARLESTON   MOCLDY    72  57  59 S12       30.02F
WATERFRONT PRK   N/A     70  61  73 S7        30.02S
JOHNS ISLAND   FAIR      70  61  73 S8        30.03F
PINOPOLIS        N/A     72  61  68 CALM      29.93F
MONCKS CORNER  CLOUDY    72  55  56 S8        30.01S
SUMMERVILLE    FAIR      72  59  64 S6G18     30.02S
BEAUFORT MCAS  PTCLDY    71  62  73 S7        30.02F
BEAUFORT ARPT  FAIR      68  59  73 S8        30.01F
HILTON HEAD IS MOCLDY    68  61  77 S8        30.04F
WALTERBORO     CLEAR     70  59  68 S8        30.01S
ALLENDALE      FAIR      75  63  64 S8G15     29.97S

...SOUTHERN MIDLANDS AND PEE DEE...

CITY           SKY/WX    TMP DP  RH WIND       PRES   REMARKS
GEORGETOWN     FAIR      68  57  68 S5        30.04S
KINGSTREE      FAIR      73  55  53 S12       29.99S
ORANGEBURG     PTCLDY    77  56  48 S8        29.97F
BARNWELL       FAIR      79  61  53 S5        29.97S
AIKEN          MOCLDY    73  59  60 E3        30.00S
MANNING        FAIR      72  61  68 S6        29.99S
COLUMBIA       CLOUDY    77  57  50 CALM      29.96S
SUMTER         MOCLDY    78  59  50 SE7       29.95S
FLORENCE       MOCLDY    75  60  59 S7        29.98S
MYRTLE BEACH   CLEAR     68  57  68 S14       30.04
N MYRTLE BEACH CLEAR     67  59  75 S9        30.03S

$$

GAZ063-065-086>088-099>101-113>116-118-119-134>141-150-280000-
...SOUTHEAST GEORGIA...

CITY           SKY/WX    TMP DP  RH WIND       PRES   REMARKS
SAVANNAH ARPT  MOCLDY    73  57  57 SE10      30.01F
HUNTER AAF     MOCLDY    71  61  70 S3        29.99F
FORT STEWART   PTCLDY    75  60  59 SE9       29.98F
STATESBORO     MOCLDY    77  65  66 S9        29.98S
SYLVANIA       PTCLDY   N/A N/A N/A S8        29.99S
CLAXTON        FAIR      76  76 100 E6        29.98S

...CSRA...CENTRAL AND FAR SOUTHEAST GEORGIA...

CITY           SKY/WX    TMP DP  RH WIND       PRES   REMARKS
THOMSON        CLOUDY    77  56  48 W6        29.99F
AUGUSTA-BUSH   MOCLDY    81  57  43 S9        29.94F
AUGUSTA-DANIEL MOCLDY    81  52  36 S9        29.96S
SWAINSBORO     MOCLDY    79  55  44 SW3       29.98S
VIDALIA        CLEAR     81  55  41 S7        29.97F
EASTMAN        MOCLDY    81  38  21 SW3       30.00R
HAZLEHURST     FAIR      80  59  48 S3        29.97S
ALMA           CLEAR     80  59  48 S7        29.97F
WAYCROSS       PTCLDY    81  65  59 SE9       29.98S
JESUP          FAIR      77  55  47 SE10      30.00S
BAXLEY         FAIR      79  63  57 CALM      29.97S
BRUNSWICK      PTCLDY    72  63  73 SE10      30.03S
SAINT SIMONS   MOCLDY    70  61  73 SE12      30.02F

$$

SCZ027-028-034-036>038-045-046-048>050-GAZ119-141-280000-
...LAKE AND SUPPLEMENTAL COASTAL OBSERVATIONS...

STATION/POSITION TIME  TEMP    WIND        PRES    WAVE   SWELL
                       AIR SEA DIR/SP/G            HT/PER HT/PER/DIR
                 (UTC) (F)     (DEG/KT/KT) (MB)    (FT/S) (FT/S/D)
WINYAH BAY       2230   70     190/ 10     1017.0S
LAKE MURRAY      2320   69      CALM  /  2 1013.9F
ACE BASIN NERRS  2230   69     160/  2     1017.0S
FORT PULASKI     2300   69 65  160/  7/  9 1016.9
SAPELO ISLAND    2300   72     150/  9     1017.0

$$

ANZ835-935-AMZ111-154-330-350-352-354-370-450-454-472-280000-
...C-MAN AND BUOY OBSERVATIONS...

STATION/POSITION TIME  TEMP    WIND        PRES    WAVE   SWELL
                       AIR SEA DIR/SP/G            HT/PER HT/PER/DIR
                 (UTC) (F)     (DEG/KT/KT) (MB)    (FT/S) (FT/S/D)
BUOY 41004       2250   72 75  170/ 12/ 16 1016.7F   4/10   3/130/10
BUOY 41008       2250   66 65  150/  8/ 10 1016.7F   4/11   3/130/11
FOLLY BEACH CMAN 2300   66     160/  8/  9 1017.7F
CAPERS NEARSHORE 2308   66     170/  6/  8 1016.9F
FRIPP NEARSHORE  2308   64 64  170/  8/ 10 1016.2F


STATION/POSITION TIME  TEMP    WIND        PRES    WAVE   SWELL
                       AIR SEA DIR/SP/G            HT/PER HT/PER/DIR
                 (UTC) (F)     (DEG/KT/KT) (MB)    (FT/S) (FT/S/D)
5E ST. MARYS GA  2300      67                N/A     3/10   2/120/11
FRYING PAN BUOY  2310   72 77  180/  8/ 12 1017.4
BUOY 41025       2250   71 76  190/ 12/ 16 1017.3F   4/ 8   3/ 80/ 8
CAPE LOOKOUT NC  2300   67     190/  7/  8 1017.5R
BUOY 41002       2250   69 73   80/  8/ 10 1018.7F   6/10   7/110/10
BUOY 41010       NOT AVBL
ST AUGUSTINE FL  2300   69 72  130/  8/  9 1017.8F


$$



USA.gov is the U.S. government's official web portal to all federal, state and local government web resources and services.